SCP
-0 0 0 0 0 -0 0 0 0 0 0 0 0 0 0 -0 -0 0 -0 -0 -0 -0 0 0 -0 0 -0 -0 -0 -0 -0 0 -0 0 0 0 0 0 1 1 1 0 0 0 0 0 0 0 0
-0 0 0 0 -0 0 0 0 0 0 0 0 0 -0 -0 -0 -0 0 0 0 -0 -0 -0 0 -0 0 0 0 -0 -0 -0 -0 -0 0 0 0 0 1 1 1 0 0 0 0 0 0 0 0 0
0 0 0 0 0 0 0 0 -0 0 0 0 0 -0 -0 -0 -0 0 -0 -0 0 0 0 0 0 -0 -0 -0 0 0 0 0 0 0 0 0 1 1 1 1 1 0 0 0 0 0 1 1 1
0 0 0 0 0 0 0 -0 0 0 0 0 0 0 -0 -0 -0 0 0 -0 -0 0 0 0 -0 -0 -0 -0 -0 0 0 0 0 1 1 1 0 1 1 1 1 0 0 0 0 0 1 1 1
-0 0 0 0 -0 0 -0 0 0 0 0 0 0 0 -0 -0 -0 -0 0 0 0 0 0 0 -0 -0 -0 -0 -0 -1 -0 0 1 1 1 1 1 1 1 1 0 0 0 0 0 1 1 1 1
-0 -0 0 -0 -0 0 0 0 0 0 0 0 0 0 -0 -0 0 -0 0 0 0 -0 0 0 -0 -0 0 -0 -0 -0 -0 0 0 0 0 1 1 1 1 1 1 0 0 0 1 1 1 1 1
-0 -0 0 0 -0 0 0 0 0 0 0 0 -0 -0 -0 -0 0 0 0 0 0 0 0 0 0 -0 -0 0 0 0 0 0 0 0 0 0 0 1 1 1 1 1 1 1 1 1 1 1 1
0 -0 0 -0 -0 0 0 0 0 0 0 -0 0 0 -0 -0 -0 0 -0 -0 -0 0 0 0 0 0 0 0 -0 0 0 -0 -0 -0 0 0 0 0 0 1 1 0 1 1 1 1 1 1 1
-0 0 -0 -0 0 0 0 0 0 0 0 -0 -0 -0 0 0 -0 -0 -0 0 0 0 0 0 0 0 0 0 0 0 0 0 0 0 0 0 0 0 0 0 1 1 1 1 1 1 1 1 1
-0 -0 0 0 0 0 0 0 0 0 0 0 0 0 0 0 -0 0 0 0 0 0 0 0 0 0 -0 -0 -0 -0 0 -0 -0 -0 -0 -0 0 0 0 0 0 1 1 1 1 2 1 2 2
-0 -0 -0 0 0 0 0 0 -0 0 0 0 0 0 0 0 0 0 0 0 0 0 0 0 0 -0 -0 -0 -0 -0 -0 -0 -0 -0 -0 -0 -0 0 0 0 0 1 1 0 0 0 0 1 3
-0 -0 0 0 0 0 -0 -0 0 0 0 0 0 0 0 0 0 0 0 0 0 0 0 -0 -0 -0 -0 -0 -0 -0 -0 -0 -0 -0 -0 -0 -0 0 0 0 0 0 0 0 0 1 1 1 1
0 0 -0 -0 0 0 0 0 0 0 0 0 0 0 0 0 0 0 0 0 0 0 0 0 -0 -0 -0 -0 -0 -0 -0 -0 -0 -0 0 0 -0 0 0 0 0 0 0 0 0 0 1 0 0
-0 -0 -0 -0 0 0 0 0 0 0 0 0 0 0 0 0 0 0 0 0 0 0 0 0 0 0 0 0 0 -0 -0 -0 0 0 0 0 0 0 0 0 0 0 0 0 0 0 0 0 0
-0 -0 -0 0 0 0 0 0 0 0 0 0 0 0 0 0 0 0 0 0 0 0 0 0 0 0 0 0 0 0 0 0 0 0 0 0 0 0 0 0 0 0 0 0 0 0 0 0 0
-0 -0 -0 -0 0 0 0 0 0 0 0 0 0 0 0 0 0 0 0 0 0 0 0 0 0 0 0 0 0 0 0 0 0 -0 -0 0 0 0 0 0 0 0 0 0 0 0 0 0 0
0 -0 0 -0 -0 0 0 0 0 0 0 0 0 0 0 0 0 0 0 0 0 0 0 0 0 0 0 0 0 0 0 0 0 0 0 -0 0 0 0 0 0 0 0 0 0 0 0 0 0
0 0 0 0 0 0 0 0 0 0 0 0 0 0 -0 0 0 0 0 0 0 0 0 0 0 0 0 0 0 0 0 0 0 0 0 0 -0 -0 -0 -0 0 0 0 0 0 0 0 0 0
0 0 -0 0 0 0 0 0 0 0 0 0 0 0 0 0 0 0 0 0 0 0 0 0 0 0 0 0 0 0 0 0 0 0 0 0 -0 0 -0 -0 -0 0 0 0 0 0 0 0 0
-0 0 0 0 0 0 0 0 0 0 0 0 0 0 0 0 0 0 0 0 0 0 0 0 0 0 0 0 0 0 0 0 0 0 0 0 0 -0 -0 0 0 0 0 0 0 0 0 0 0
-0 0 0 0 0 0 0 0 0 0 0 0 0 0 0 0 0 0 0 0 0 0 0 0 0 0 0 0 0 0 0 0 0 0 0 0 0 0 0 0 0 0 0 0 0 0 0 0 0
0 0 -0 -0 0 0 0 0 0 0 0 0 0 0 0 0 0 0 0 0 0 0 0 0 0 0 0 0 0 0 0 0 0 0 0 0 0 0 0 0 0 0 0 0 0 0 0 0 0
0 -0 -0 0 0 0 0 0 0 0 0 0 0 0 0 0 0 0 0 0 0 0 0 0 0 0 0 0 0 0 0 0 0 0 0 0 0 0 0 0 0 0 0 0 0 0 0 0 0
-0 -0 0 0 0 0 0 0 0 0 0 0 0 0 0 0 0 0 0 0 0 0 0 0 0 0 0 0 0 0 0 0 0 0 0 0 0 0 0 0 0 0 0 0 0 0 0 0 0
0 0 0 0 0 0 0 0 0 0 0 0 0 0 0 0 0 0 0 0 0 0 0 0 0 0 0 0 0 0 0 0 0 0 0 0 0 0 0 0 0 0 0 0 0 0 0 0 0
-0 0 0 0 0 0 0 0 0 0 0 0 0 0 0 0 0 0 0 0 0 0 0 0 0 0 0 0 0 0 0 0 0 0 0 0 0 0 0 0 0 0 0 0 0 0 0 0 0
0 0 0 0 0 0 0 0 0 0 0 0 0 0 0 0 0 0 0 0 0 0 0 0 0 0 0 0 0 0 0 0 0 0 0 0 0 0 0 0 0 0 0 0 0 0 0 0 0
0 0 0 0 0 0 0 0 0 0 0 0 0 0 0 0 0 0 0 0 0 0 0 0 0 0 0 0 0 0 0 0 0 0 0 0 0 0 0 0 0 0 0 0 0 -0 0 0 0
0 0 0 0 0 0 0 0 0 0 0 0 0 0 0 0 0 0 0 0 0 0 0 0 0 0 0 0 0 0 0 0 0 0 0 0 0 0 0 0 0 0 0 0 0 -0 -0 -0 0
0 0 0 0 0 0 0 0 0 0 0 0 0 0 0 0 0 0 0 0 0 0 0 0 0 0 0 0 0 0 0 0 0 0 0 0 0 0 0 0 0 0 0 0 0 -0 -0 -0 0
Wind_Speed_500mb
2 5 11 7 8 10 5 5 6 13 10 19 28 20 10 5 4 8 9 18 11 6 8 10 11 12 14 9 5 5 10 17 19 22 28 29 27 29 30 28 25 24 26 30 28 32 37 33 27
5 2 3 5 10 10 7 5 20 24 28 30 35 14 13 7 8 17 13 15 10 7 9 9 8 6 8 8 6 6 6 8 12 16 17 20 23 24 24 25 23 23 25 28 29 34 40 38 31
6 2 2 8 7 7 8 3 13 21 11 8 9 9 5 5 11 15 12 7 8 10 10 10 8 4 6 7 6 5 4 5 6 8 10 11 15 19 20 20 21 22 24 27 29 34 41 43 38
7 3 11 9 6 7 7 14 19 20 9 17 10 6 8 5 11 22 11 12 12 11 10 10 10 10 8 8 8 7 3 8 10 11 11 9 11 14 18 20 22 24 26 27 30 34 41 44 41
5 7 10 8 6 3 9 11 14 11 9 13 10 4 9 10 27 23 20 12 9 8 5 6 7 6 4 2 6 6 3 4 9 13 15 16 16 18 21 24 25 26 28 29 31 35 42 45 44
6 6 11 3 4 3 6 20 46 38 28 16 17 6 5 26 15 15 11 11 12 7 7 10 12 10 8 6 3 1 3 3 7 11 14 15 17 20 25 28 31 31 31 32 33 36 42 49 50
11 9 9 11 12 6 7 14 17 16 11 6 18 7 13 16 13 16 14 15 16 15 14 17 9 10 10 14 12 13 12 8 13 19 23 27 27 23 28 34 38 40 40 41 41 41 42 44 47
7 9 7 2 9 9 5 12 31 14 4 9 5 9 12 27 24 15 16 11 9 15 12 13 17 17 22 19 13 8 7 12 13 14 18 21 23 24 27 34 39 45 48 49 50 49 47 47 48
4 9 2 9 10 10 14 13 22 20 26 11 3 14 31 25 19 15 16 18 14 25 31 34 35 26 24 28 26 18 12 16 19 23 28 33 35 38 42 41 47 50 54 56 57 56 55 53 53
8 8 16 7 10 10 15 22 23 15 32 29 32 25 23 12 23 28 31 28 31 37 43 38 34 36 32 35 33 32 33 33 38 39 39 40 41 40 38 42 38 41 53 59 61 58 59 59 60
5 8 10 5 27 25 11 11 14 45 10 32 36 44 46 46 41 38 37 38 43 44 41 31 30 32 35 40 45 51 54 51 48 46 46 46 40 35 39 40 41 41 48 49 43 56 61 61 60
11 17 9 13 23 21 7 10 18 25 29 47 52 52 57 53 48 44 42 39 38 39 40 37 36 42 45 46 53 59 52 45 55 52 47 53 53 42 36 32 32 37 40 30 35 39 41 49 58
10 8 25 44 33 21 27 20 21 34 35 46 52 51 48 46 42 39 35 36 34 31 30 32 35 41 43 48 46 52 56 55 56 45 40 47 49 44 36 36 35 36 34 30 33 37 37 43 47
27 40 32 42 28 25 32 5 9 23 43 47 47 44 37 34 35 36 31 30 24 22 21 24 25 27 37 35 34 45 39 41 44 54 57 54 50 49 45 42 42 41 40 38 34 34 37 37 38
60 23 20 16 24 13 29 13 15 35 45 51 41 40 35 28 26 24 23 23 19 15 20 21 23 27 32 32 36 37 41 46 52 57 60 63 61 57 57 55 53 50 49 46 44 41 43 46 44
13 9 12 13 25 18 6 4 7 30 45 44 40 37 34 28 23 21 24 19 12 15 15 14 17 25 30 30 36 42 47 52 60 68 68 65 58 52 48 46 47 48 48 51 51 50 49 47 47
6 12 9 15 31 4 6 9 8 33 38 32 38 31 29 28 26 27 23 12 13 8 8 16 21 29 28 27 32 41 49 56 61 63 65 61 57 52 47 42 43 46 46 43 44 46 49 51 46
9 10 6 14 7 10 19 15 9 31 37 28 27 32 29 26 26 23 17 11 5 2 13 18 25 25 28 33 37 45 57 61 59 61 60 58 57 56 55 52 43 36 41 40 37 37 40 44 44
10 8 9 9 1 14 15 23 9 19 32 27 30 35 29 25 20 18 12 11 9 9 16 19 23 29 36 43 50 56 58 54 55 54 54 59 62 61 60 55 48 37 31 34 35 38 39 38 36
6 9 7 9 10 16 14 13 5 11 26 32 43 34 30 21 22 13 15 17 10 11 15 18 25 32 40 49 51 50 50 50 51 51 53 59 65 64 61 50 39 33 30 27 31 36 44 36 28
11 13 13 14 16 19 23 7 1 5 8 7 29 36 29 19 22 24 22 14 7 7 11 19 29 40 45 45 49 53 55 50 54 59 61 61 61 57 53 39 34 32 30 29 28 31 35 40 32
8 17 27 33 9 10 3 4 4 6 8 4 16 26 23 25 23 23 21 13 6 8 15 27 37 41 44 48 54 52 47 51 55 60 61 55 52 48 45 42 34 32 30 30 31 34 33 32 29
2 33 29 12 11 10 4 9 6 10 9 8 20 24 32 29 25 27 23 16 9 12 24 34 37 40 45 50 48 44 44 47 55 55 55 56 54 51 50 41 41 32 30 26 29 33 34 32 28
30 34 18 12 8 6 5 7 6 9 10 10 22 33 34 34 35 30 20 11 8 17 27 31 35 40 44 44 40 42 44 50 50 61 62 62 56 51 48 43 39 34 32 33 31 32 31 28 27
16 13 6 4 2 8 4 5 8 4 8 25 37 46 45 44 36 27 17 7 10 19 24 27 32 38 42 38 38 40 40 44 51 53 60 65 65 52 42 40 38 32 30 35 36 36 29 24 23
17 14 12 13 10 7 5 8 6 6 16 30 52 55 52 45 36 27 16 6 12 18 19 23 31 39 33 32 36 36 35 41 44 49 57 56 61 66 39 37 33 33 33 37 37 36 36 32 25
10 8 10 15 5 8 4 4 7 13 17 33 43 56 54 44 34 24 13 8 13 15 17 25 32 28 26 30 32 36 37 38 40 44 50 52 57 58 47 35 34 32 33 35 40 36 37 35 32
9 12 6 7 9 5 5 8 7 14 17 20 34 45 48 40 32 21 10 8 11 12 18 24 23 21 23 27 30 33 35 36 37 40 43 48 49 55 54 39 36 35 35 36 36 36 34 36 36
3 5 14 12 6 10 8 11 5 26 28 28 37 52 48 40 29 17 8 6 7 11 17 20 16 19 23 27 30 31 31 32 31 36 40 41 41 42 49 48 42 39 38 37 35 34 35 36 36
6 7 9 9 7 4 7 9 12 17 38 46 49 47 40 33 25 13 7 6 7 11 17 13 15 17 19 22 25 30 32 35 33 35 40 38 36 36 40 38 34 37 39 41 42 34 34 31 34
Wind_Direction_500mb
109 5 346 346 43 60 40 13 271 23 63 52 84 74 106 79 125 144 137 147 121 118 171 173 161 181 191 184 167 147 134 135 146 162 169 178 186 183 187 195 200 205 208 210 212 205 199 191 185
103 14 2 52 74 55 351 332 72 84 134 77 74 55 32 37 70 80 78 146 128 169 166 150 143 165 205 207 198 177 172 160 160 165 173 177 184 195 205 212 217 221 221 221 221 213 205 201 198
140 317 20 85 93 90 117 268 129 74 77 70 84 57 0 31 48 62 81 134 142 166 145 138 126 148 189 200 205 181 178 177 188 185 186 195 195 196 205 217 226 227 230 233 229 220 210 208 210
156 153 61 74 45 24 121 215 115 119 50 61 79 45 56 71 66 74 71 135 150 139 124 127 133 145 161 189 200 178 187 186 194 197 201 214 228 227 226 227 230 235 238 239 234 227 220 217 218
145 77 59 59 18 340 277 358 101 94 92 40 350 20 40 106 120 21 88 99 122 123 119 109 113 84 67 139 175 174 191 204 213 211 206 215 223 239 242 243 240 239 240 242 242 234 229 226 226
91 91 64 80 113 219 48 79 73 75 83 97 93 69 24 118 89 47 79 97 115 115 85 55 51 52 53 8 20 152 181 237 263 260 252 234 238 247 252 252 254 253 250 247 245 241 235 233 232
111 82 169 162 154 67 100 63 56 72 147 34 140 98 142 133 73 54 74 93 95 74 56 57 42 61 56 50 16 358 350 314 258 263 263 263 264 272 264 263 259 253 251 252 248 243 242 241 240
95 94 109 156 186 107 117 73 79 91 32 122 164 165 170 117 95 90 84 101 37 32 43 43 64 72 65 52 48 42 13 347 318 300 283 272 263 266 292 278 268 264 257 250 247 245 242 242 243
110 60 88 174 141 145 145 124 95 88 118 100 126 130 144 127 101 90 108 95 81 77 65 81 85 82 80 59 48 37 10 344 329 314 304 291 280 269 267 275 269 263 263 257 251 249 245 240 240
108 113 203 160 139 139 101 100 117 110 85 78 85 112 160 188 131 123 120 101 87 79 80 89 76 65 57 45 40 31 19 3 354 346 336 331 326 308 296 286 283 274 262 263 255 249 247 244 243
112 162 159 72 105 110 82 89 116 124 70 119 117 118 123 124 123 124 109 94 86 78 79 79 57 47 36 25 17 12 7 3 359 351 346 342 336 322 309 299 291 283 268 260 257 256 251 251 251
86 36 88 102 91 92 17 98 66 90 115 125 124 127 124 122 119 112 103 99 95 82 73 62 44 30 24 21 15 10 7 13 7 359 348 345 332 330 329 317 309 307 302 285 248 252 250 250 252
84 86 54 102 107 88 89 58 98 93 117 128 130 129 123 119 111 103 101 91 87 84 73 55 30 23 19 10 4 7 5 351 350 346 338 336 330 318 316 314 312 305 302 297 285 267 270 271 257
111 95 90 97 93 98 112 65 93 115 133 123 132 134 131 118 108 110 105 94 89 81 63 36 24 25 2 1 359 358 348 338 335 335 334 333 327 319 314 307 294 288 290 292 290 289 284 281 281
110 85 75 95 119 125 132 17 97 136 136 127 132 133 134 124 116 119 112 105 91 62 49 46 27 9 6 3 355 348 333 327 325 328 325 322 321 317 312 306 301 291 283 278 277 274 272 278 280
84 64 131 208 167 198 180 161 126 145 140 133 136 141 141 134 136 141 129 118 85 51 55 27 14 13 6 352 344 336 331 326 324 325 328 327 327 325 322 317 311 304 291 281 275 274 268 265 267
334 163 175 157 209 189 120 133 176 156 151 141 145 154 156 153 154 154 151 125 96 76 20 342 353 348 342 332 326 328 326 322 324 325 327 331 335 340 338 331 321 313 306 298 283 266 268 269 266
180 118 149 155 174 67 87 110 95 151 157 152 160 171 182 176 165 163 167 156 152 295 321 325 329 322 323 321 318 316 318 323 329 332 336 336 335 337 340 339 336 325 313 311 309 295 268 262 267
131 127 158 95 44 75 112 111 74 129 144 150 178 197 197 188 184 171 187 206 244 289 308 313 315 324 326 325 324 322 328 331 331 336 338 338 338 336 336 337 336 341 332 321 328 319 311 276 261
145 127 142 110 98 97 117 70 60 131 152 180 200 204 205 207 197 190 218 224 256 295 311 318 327 331 334 336 340 343 340 337 337 338 342 343 340 340 340 342 342 347 343 334 334 329 321 322 293
200 186 184 132 108 65 117 75 42 338 158 204 222 218 222 226 209 220 221 228 268 314 337 339 337 340 340 342 344 340 334 338 341 346 344 344 341 342 346 356 357 352 351 342 335 325 324 315 310
221 184 138 138 121 155 181 164 202 210 207 165 161 175 177 183 176 184 192 173 121 44 354 345 342 341 348 350 347 349 354 352 349 341 340 344 348 353 1 9 1 357 356 357 357 353 335 336 310
360 108 117 121 84 115 358 95 199 168 217 197 152 148 154 160 160 149 142 126 77 12 350 345 344 350 350 348 352 1 0 354 346 350 358 1 3 4 6 6 5 2 360 359 360 357 343 346 339
127 89 53 52 77 46 250 141 232 187 194 176 159 149 150 151 147 139 126 107 35 358 347 348 350 348 347 352 3 3 2 2 14 10 2 357 354 358 2 2 8 3 6 8 1 350 350 343 348
104 90 62 15 15 210 276 80 236 273 203 182 149 147 148 147 144 135 131 107 20 354 353 350 348 349 353 359 1 3 8 11 14 9 5 9 9 359 359 3 7 7 5 10 11 9 0 355 360
191 163 152 184 176 203 22 196 262 50 75 150 154 149 147 144 142 141 138 87 10 6 353 353 351 352 359 4 5 13 15 15 14 11 8 15 14 14 9 12 11 16 21 20 17 17 10 9 6
178 67 149 107 60 104 200 271 90 100 90 115 129 141 146 147 148 143 128 49 18 5 6 357 353 360 6 13 17 18 17 13 13 12 13 20 20 19 19 19 18 16 20 24 27 22 26 21 18
121 146 90 28 133 171 243 246 223 166 163 142 138 146 150 150 148 142 114 43 23 20 2 356 1 12 26 22 20 17 13 13 11 12 14 17 21 22 22 24 22 21 21 24 23 25 24 21 21
57 60 58 106 102 151 164 253 10 185 171 156 155 157 158 158 153 148 106 69 51 17 6 6 29 41 40 37 33 19 13 11 11 13 14 13 18 23 27 40 38 34 31 26 26 25 27 21 22
88 123 124 119 215 89 141 266 327 149 146 151 154 159 157 157 156 152 137 114 65 21 11 37 51 47 44 35 19 4 4 9 17 25 20 16 17 20 19 21 15 15 21 21 18 18 16 20 24
Wind_Speed_850mb
2 5 11 7 8 10 5 5 6 13 10 19 28 20 10 5 4 8 9 18 11 6 8 10 11 12 14 9 5 5 10 17 19 22 28 29 27 29 30 28 25 24 26 30 28 32 37 33 27
5 2 3 5 10 10 7 5 20 24 28 30 35 14 13 7 8 17 13 15 10 7 9 9 8 6 8 8 6 6 6 8 12 16 17 20 23 24 24 25 23 23 25 28 29 34 40 38 31
6 2 2 8 7 7 8 3 13 21 11 8 9 9 5 5 11 15 12 7 8 10 10 10 8 4 6 7 6 5 4 5 6 8 10 11 15 19 20 20 21 22 24 27 29 34 41 43 38
7 3 11 9 6 7 7 14 19 20 9 17 10 6 8 5 11 22 11 12 12 11 10 10 10 10 8 8 8 7 3 8 10 11 11 9 11 14 18 20 22 24 26 27 30 34 41 44 41
5 7 10 8 6 3 9 11 14 11 9 13 10 4 9 10 27 23 20 12 9 8 5 6 7 6 4 2 6 6 3 4 9 13 15 16 16 18 21 24 25 26 28 29 31 35 42 45 44
6 6 11 3 4 3 6 20 46 38 28 16 17 6 5 26 15 15 11 11 12 7 7 10 12 10 8 6 3 1 3 3 7 11 14 15 17 20 25 28 31 31 31 32 33 36 42 49 50
11 9 9 11 12 6 7 14 17 16 11 6 18 7 13 16 13 16 14 15 16 15 14 17 9 10 10 14 12 13 12 8 13 19 23 27 27 23 28 34 38 40 40 41 41 41 42 44 47
7 9 7 2 9 9 5 12 31 14 4 9 5 9 12 27 24 15 16 11 9 15 12 13 17 17 22 19 13 8 7 12 13 14 18 21 23 24 27 34 39 45 48 49 50 49 47 47 48
4 9 2 9 10 10 14 13 22 20 26 11 3 14 31 25 19 15 16 18 14 25 31 34 35 26 24 28 26 18 12 16 19 23 28 33 35 38 42 41 47 50 54 56 57 56 55 53 53
8 8 16 7 10 10 15 22 23 15 32 29 32 25 23 12 23 28 31 28 31 37 43 38 34 36 32 35 33 32 33 33 38 39 39 40 41 40 38 42 38 41 53 59 61 58 59 59 60
5 8 10 5 27 25 11 11 14 45 10 32 36 44 46 46 41 38 37 38 43 44 41 31 30 32 35 40 45 51 54 51 48 46 46 46 40 35 39 40 41 41 48 49 43 56 61 61 60
11 17 9 13 23 21 7 10 18 25 29 47 52 52 57 53 48 44 42 39 38 39 40 37 36 42 45 46 53 59 52 45 55 52 47 53 53 42 36 32 32 37 40 30 35 39 41 49 58
10 8 25 44 33 21 27 20 21 34 35 46 52 51 48 46 42 39 35 36 34 31 30 32 35 41 43 48 46 52 56 55 56 45 40 47 49 44 36 36 35 36 34 30 33 37 37 43 47
27 40 32 42 28 25 32 5 9 23 43 47 47 44 37 34 35 36 31 30 24 22 21 24 25 27 37 35 34 45 39 41 44 54 57 54 50 49 45 42 42 41 40 38 34 34 37 37 38
60 23 20 16 24 13 29 13 15 35 45 51 41 40 35 28 26 24 23 23 19 15 20 21 23 27 32 32 36 37 41 46 52 57 60 63 61 57 57 55 53 50 49 46 44 41 43 46 44
13 9 12 13 25 18 6 4 7 30 45 44 40 37 34 28 23 21 24 19 12 15 15 14 17 25 30 30 36 42 47 52 60 68 68 65 58 52 48 46 47 48 48 51 51 50 49 47 47
6 12 9 15 31 4 6 9 8 33 38 32 38 31 29 28 26 27 23 12 13 8 8 16 21 29 28 27 32 41 49 56 61 63 65 61 57 52 47 42 43 46 46 43 44 46 49 51 46
9 10 6 14 7 10 19 15 9 31 37 28 27 32 29 26 26 23 17 11 5 2 13 18 25 25 28 33 37 45 57 61 59 61 60 58 57 56 55 52 43 36 41 40 37 37 40 44 44
10 8 9 9 1 14 15 23 9 19 32 27 30 35 29 25 20 18 12 11 9 9 16 19 23 29 36 43 50 56 58 54 55 54 54 59 62 61 60 55 48 37 31 34 35 38 39 38 36
6 9 7 9 10 16 14 13 5 11 26 32 43 34 30 21 22 13 15 17 10 11 15 18 25 32 40 49 51 50 50 50 51 51 53 59 65 64 61 50 39 33 30 27 31 36 44 36 28
11 13 13 14 16 19 23 7 1 5 8 7 29 36 29 19 22 24 22 14 7 7 11 19 29 40 45 45 49 53 55 50 54 59 61 61 61 57 53 39 34 32 30 29 28 31 35 40 32
8 17 27 33 9 10 3 4 4 6 8 4 16 26 23 25 23 23 21 13 6 8 15 27 37 41 44 48 54 52 47 51 55 60 61 55 52 48 45 42 34 32 30 30 31 34 33 32 29
2 33 29 12 11 10 4 9 6 10 9 8 20 24 32 29 25 27 23 16 9 12 24 34 37 40 45 50 48 44 44 47 55 55 55 56 54 51 50 41 41 32 30 26 29 33 34 32 28
30 34 18 12 8 6 5 7 6 9 10 10 22 33 34 34 35 30 20 11 8 17 27 31 35 40 44 44 40 42 44 50 50 61 62 62 56 51 48 43 39 34 32 33 31 32 31 28 27
16 13 6 4 2 8 4 5 8 4 8 25 37 46 45 44 36 27 17 7 10 19 24 27 32 38 42 38 38 40 40 44 51 53 60 65 65 52 42 40 38 32 30 35 36 36 29 24 23
17 14 12 13 10 7 5 8 6 6 16 30 52 55 52 45 36 27 16 6 12 18 19 23 31 39 33 32 36 36 35 41 44 49 57 56 61 66 39 37 33 33 33 37 37 36 36 32 25
10 8 10 15 5 8 4 4 7 13 17 33 43 56 54 44 34 24 13 8 13 15 17 25 32 28 26 30 32 36 37 38 40 44 50 52 57 58 47 35 34 32 33 35 40 36 37 35 32
9 12 6 7 9 5 5 8 7 14 17 20 34 45 48 40 32 21 10 8 11 12 18 24 23 21 23 27 30 33 35 36 37 40 43 48 49 55 54 39 36 35 35 36 36 36 34 36 36
3 5 14 12 6 10 8 11 5 26 28 28 37 52 48 40 29 17 8 6 7 11 17 20 16 19 23 27 30 31 31 32 31 36 40 41 41 42 49 48 42 39 38 37 35 34 35 36 36
6 7 9 9 7 4 7 9 12 17 38 46 49 47 40 33 25 13 7 6 7 11 17 13 15 17 19 22 25 30 32 35 33 35 40 38 36 36 40 38 34 37 39 41 42 34 34 31 34
Wind_Direction_850mb
109 5 346 346 43 60 40 13 271 23 63 52 84 74 106 79 125 144 137 147 121 118 171 173 161 181 191 184 167 147 134 135 146 162 169 178 186 183 187 195 200 205 208 210 212 205 199 191 185
103 14 2 52 74 55 351 332 72 84 134 77 74 55 32 37 70 80 78 146 128 169 166 150 143 165 205 207 198 177 172 160 160 165 173 177 184 195 205 212 217 221 221 221 221 213 205 201 198
140 317 20 85 93 90 117 268 129 74 77 70 84 57 0 31 48 62 81 134 142 166 145 138 126 148 189 200 205 181 178 177 188 185 186 195 195 196 205 217 226 227 230 233 229 220 210 208 210
156 153 61 74 45 24 121 215 115 119 50 61 79 45 56 71 66 74 71 135 150 139 124 127 133 145 161 189 200 178 187 186 194 197 201 214 228 227 226 227 230 235 238 239 234 227 220 217 218
145 77 59 59 18 340 277 358 101 94 92 40 350 20 40 106 120 21 88 99 122 123 119 109 113 84 67 139 175 174 191 204 213 211 206 215 223 239 242 243 240 239 240 242 242 234 229 226 226
91 91 64 80 113 219 48 79 73 75 83 97 93 69 24 118 89 47 79 97 115 115 85 55 51 52 53 8 20 152 181 237 263 260 252 234 238 247 252 252 254 253 250 247 245 241 235 233 232
111 82 169 162 154 67 100 63 56 72 147 34 140 98 142 133 73 54 74 93 95 74 56 57 42 61 56 50 16 358 350 314 258 263 263 263 264 272 264 263 259 253 251 252 248 243 242 241 240
95 94 109 156 186 107 117 73 79 91 32 122 164 165 170 117 95 90 84 101 37 32 43 43 64 72 65 52 48 42 13 347 318 300 283 272 263 266 292 278 268 264 257 250 247 245 242 242 243
110 60 88 174 141 145 145 124 95 88 118 100 126 130 144 127 101 90 108 95 81 77 65 81 85 82 80 59 48 37 10 344 329 314 304 291 280 269 267 275 269 263 263 257 251 249 245 240 240
108 113 203 160 139 139 101 100 117 110 85 78 85 112 160 188 131 123 120 101 87 79 80 89 76 65 57 45 40 31 19 3 354 346 336 331 326 308 296 286 283 274 262 263 255 249 247 244 243
112 162 159 72 105 110 82 89 116 124 70 119 117 118 123 124 123 124 109 94 86 78 79 79 57 47 36 25 17 12 7 3 359 351 346 342 336 322 309 299 291 283 268 260 257 256 251 251 251
86 36 88 102 91 92 17 98 66 90 115 125 124 127 124 122 119 112 103 99 95 82 73 62 44 30 24 21 15 10 7 13 7 359 348 345 332 330 329 317 309 307 302 285 248 252 250 250 252
84 86 54 102 107 88 89 58 98 93 117 128 130 129 123 119 111 103 101 91 87 84 73 55 30 23 19 10 4 7 5 351 350 346 338 336 330 318 316 314 312 305 302 297 285 267 270 271 257
111 95 90 97 93 98 112 65 93 115 133 123 132 134 131 118 108 110 105 94 89 81 63 36 24 25 2 1 359 358 348 338 335 335 334 333 327 319 314 307 294 288 290 292 290 289 284 281 281
110 85 75 95 119 125 132 17 97 136 136 127 132 133 134 124 116 119 112 105 91 62 49 46 27 9 6 3 355 348 333 327 325 328 325 322 321 317 312 306 301 291 283 278 277 274 272 278 280
84 64 131 208 167 198 180 161 126 145 140 133 136 141 141 134 136 141 129 118 85 51 55 27 14 13 6 352 344 336 331 326 324 325 328 327 327 325 322 317 311 304 291 281 275 274 268 265 267
334 163 175 157 209 189 120 133 176 156 151 141 145 154 156 153 154 154 151 125 96 76 20 342 353 348 342 332 326 328 326 322 324 325 327 331 335 340 338 331 321 313 306 298 283 266 268 269 266
180 118 149 155 174 67 87 110 95 151 157 152 160 171 182 176 165 163 167 156 152 295 321 325 329 322 323 321 318 316 318 323 329 332 336 336 335 337 340 339 336 325 313 311 309 295 268 262 267
131 127 158 95 44 75 112 111 74 129 144 150 178 197 197 188 184 171 187 206 244 289 308 313 315 324 326 325 324 322 328 331 331 336 338 338 338 336 336 337 336 341 332 321 328 319 311 276 261
145 127 142 110 98 97 117 70 60 131 152 180 200 204 205 207 197 190 218 224 256 295 311 318 327 331 334 336 340 343 340 337 337 338 342 343 340 340 340 342 342 347 343 334 334 329 321 322 293
200 186 184 132 108 65 117 75 42 338 158 204 222 218 222 226 209 220 221 228 268 314 337 339 337 340 340 342 344 340 334 338 341 346 344 344 341 342 346 356 357 352 351 342 335 325 324 315 310
221 184 138 138 121 155 181 164 202 210 207 165 161 175 177 183 176 184 192 173 121 44 354 345 342 341 348 350 347 349 354 352 349 341 340 344 348 353 1 9 1 357 356 357 357 353 335 336 310
360 108 117 121 84 115 358 95 199 168 217 197 152 148 154 160 160 149 142 126 77 12 350 345 344 350 350 348 352 1 0 354 346 350 358 1 3 4 6 6 5 2 360 359 360 357 343 346 339
127 89 53 52 77 46 250 141 232 187 194 176 159 149 150 151 147 139 126 107 35 358 347 348 350 348 347 352 3 3 2 2 14 10 2 357 354 358 2 2 8 3 6 8 1 350 350 343 348
104 90 62 15 15 210 276 80 236 273 203 182 149 147 148 147 144 135 131 107 20 354 353 350 348 349 353 359 1 3 8 11 14 9 5 9 9 359 359 3 7 7 5 10 11 9 0 355 360
191 163 152 184 176 203 22 196 262 50 75 150 154 149 147 144 142 141 138 87 10 6 353 353 351 352 359 4 5 13 15 15 14 11 8 15 14 14 9 12 11 16 21 20 17 17 10 9 6
178 67 149 107 60 104 200 271 90 100 90 115 129 141 146 147 148 143 128 49 18 5 6 357 353 360 6 13 17 18 17 13 13 12 13 20 20 19 19 19 18 16 20 24 27 22 26 21 18
121 146 90 28 133 171 243 246 223 166 163 142 138 146 150 150 148 142 114 43 23 20 2 356 1 12 26 22 20 17 13 13 11 12 14 17 21 22 22 24 22 21 21 24 23 25 24 21 21
57 60 58 106 102 151 164 253 10 185 171 156 155 157 158 158 153 148 106 69 51 17 6 6 29 41 40 37 33 19 13 11 11 13 14 13 18 23 27 40 38 34 31 26 26 25 27 21 22
88 123 124 119 215 89 141 266 327 149 146 151 154 159 157 157 156 152 137 114 65 21 11 37 51 47 44 35 19 4 4 9 17 25 20 16 17 20 19 21 15 15 21 21 18 18 16 20 24